Aeroporto :
LOGIN :

Iscrizione | Disclaimer

   EN    FR    IT 

 










Sommario :    VFR   VFR Marginale   IFR   IFR Intensivo   IFR Molto Intensivo
Visibilità : 
Base nubi : 
>= 8 km
>= 3000ft
5 / 8 km
1000 / 3000 ft
1500m / 5 km
500 / 1000 ft
800 / 1500m
200 / 500 ft
< 800m
< 200 ft
Simboli :   Temporali  Nebbia  Neve Forte  Precipitazioni Forti  Vento > 20 kt
SIGMETs :   Varie  Temporali  Ghiacco  Turbolenza  Onda orograficha  Ceneri Vulcaniche






- Altitudine del aeroporto : 19 ft
- Codice IATA : LCY


EGLC - London City

ULTIMO METAR :
  • 282150Z AUTO 07008KT 9999 NCD 14/08 Q1031

METARs OBSOLETI :
  • 282120Z AUTO 07009KT 9999 NCD 15/08 Q1031
  • 282050Z AUTO 09013KT 9999 NCD 15/06 Q1032
  • 282020Z AUTO 09012KT 9999 NCD 16/06 Q1032
  • 281950Z AUTO 10012KT 9999 NCD 16/04 Q1032
  • 281920Z AUTO 08012KT 9999 NCD 17/04 Q1032

TAF TAF EGLC
Valido dal 28 a 21 ore il 29 a 06 ore UTC


281954Z 2821/2906 08009KT CAVOK
ATIS : +44 20 7646 0224



MetMap, La meteo Aeronautica in un colpo d'occhio ! - Copyright ORBIFLY Dicembre 2007 - Disclaimer

ORBIFLY MET'MAP TEAM :

Programmazione e sviluppo : Alexandra Zaïnal
Concezione : Baudouin d'Aumeries
Aiuto per la programmazione : Marc-Olivier Méhu
Supporto tecnico e logistico : Manuel Goepfert
Aiuto per la traduzione : Arnaldo La Scala

Contatto : metmap@orbifly.com




FONTI E CREDITI :

   NOAA